Regional Weather Roundup
Issued by NWS

Home | Current Version | Previous Version | Text Only | Print | Product List | Glossary Off
Versions: 1 2 3 4 5 6 7 8 9 10 11 12 13 14 15 16 17 18 19 20 21 22 23 24 25 26 27 28 29 30 31 32 33 34 35 36 37 38 39 40 41 42 43 44 45 46 47 48 49 50

000
ASUS43 KLOT 311210
RWRIL

ILLINOIS REGIONAL WEATHER ROUNDUP
NATIONAL WEATHER SERVICE CHICAGO/ROMEOVILLE IL
600 AM CST SAT JAN 31 2015

NOTE: "FAIR" INDICATES FEW OR NO CLOUDS BELOW 12,000 FEET WITH NO
SIGNIFICANT WEATHER AND/OR OBSTRUCTIONS TO VISIBILITY.

* THESE STATIONS ARE NOT UNDER NWS QUALITY CONTROL. THEY ALSO MAY NOT
  REPORT WEATHER SUCH AS PRECIPITATION OR FOG.

ILZ001-002-007-009-015-016-024-311300-
NORTHWEST ILLINOIS

CITY           SKY/WX    TMP DP  RH WIND       PRES   REMARKS
MOLINE         PTCLDY    27  19  72 W6        30.22F WCI  20
6HR MIN TEMP:  24; 6HR MAX TEMP:  27;

STERLING*      PTCLDY    25  18  74 SW3       30.23S
SAVANNA*       CLEAR     20  17  87 S3        30.22S
$$

ILZ003-004-008-010-011-017-018-311300-
NORTH CENTRAL ILLINOIS

CITY           SKY/WX    TMP DP  RH WIND       PRES   REMARKS
ROCKFORD       MOCLDY    21  15  78 S7        30.24R WCI  12
6HR MIN TEMP:  19; 6HR MAX TEMP:  24;

FREEPORT*      MOCLDY    24  18  78 SW15      30.21S WCI  11
ROCHELLE*      MOCLDY    19  16  86 S7        30.24S WCI  10
DE KALB*       CLEAR     17  14  89 S6        30.23S WCI   8
PERU*          PTCLDY    26  21  81 SW10      30.25F WCI  16
$$

ILZ005-006-012>014-019>023-311300-
NORTHEAST ILLINOIS

CITY           SKY/WX    TMP DP  RH WIND       PRES   REMARKS
CHICAGO-OHARE  CLEAR     24  18  77 SW6       30.24S WCI  17
6HR MIN TEMP:  19; 6HR MAX TEMP:  26;

CHICAGO-MIDWAY PTCLDY    27  20  75 SW8       30.26S WCI  19
6HR MIN TEMP:  23; 6HR MAX TEMP:  28;

AURORA         PTCLDY    22  17  81 S6        30.25S WCI  14
6HR MIN TEMP:  19; 6HR MAX TEMP:  23;

LANSING*       MOCLDY    25  21  85 SW5       30.28R WCI  19
JOLIET*        CLEAR     24  20  84 SW6       30.27S WCI  17
WAUKEGAN       MOCLDY    22  17  81 SW9       30.21F WCI  12
6HR MIN TEMP:  16; 6HR MAX TEMP:  22;

DUPAGE AIRPORT CLEAR     22  18  85 SW8       30.24S WCI  12
6HR MIN TEMP:  17; 6HR MAX TEMP:  25;

KANKAKEE*      PTCLDY    24  22  89 S8        30.29F WCI  16
WHEELING       CLEAR     24  17  74 S6        30.26S WCI  17
6HR MIN TEMP:  18; 6HR MAX TEMP:  25;

MORRIS*        CLEAR     23  21  91 SW8       30.26S WCI  14
ROMEOVILLE*    CLEAR     23  20  87 SW9       30.26S WCI  13
NORTHERLY ISL    N/A     28  20  71 SW9         N/A  WCI  19
$$

LMZ740>746-311300-
SOUTHERN LAKE MICHIGAN

STATION/POSITION SKY/WX   TEMP    WIND        PRES    VSBY  WAVE
                          AIR SEA DIR/SP/G                  HT/PER
                          (F)     (DEG/KT/KT) (MB)    (MI)  (FT/S)
WAUKEGAN HARBOR            25     230/ 10/ 13   N/A
HARRISON CRIB              29     210/ 13/ 18   N/A
BURNHAM HARBOR             28     240/  6/ 10   N/A
CALUMET HARBOR             27     210/  8/ 12   N/A
MICHIGAN CITY              24     150/ 10/ 14   N/A
$$

ILZ025>027-034>036-040-047-049-050-058-095>099-311300-
WEST-CENTRAL ILLINOIS

CITY           SKY/WX    TMP DP  RH WIND       PRES   REMARKS
QUINCY         CLOUDY    30  21  69 SW9       30.28R WCI  22
GALESBURG*     MOCLDY    26  22  86 S8        30.25S WCI  17
MACOMB*        CLOUDY    29  23  76 SW9       30.29S WCI  21
JACKSONVILLE*  MOCLDY    31  23  73 S7        30.30S WCI  24
PITTSFIELD*    MOCLDY    30  22  73 S5        30.30S WCI  25
$$

ILZ028>032-037-038-041>044-048-051>054-059>061-311300-
CENTRAL ILLINOIS

CITY           SKY/WX    TMP DP  RH WIND       PRES   REMARKS
PONTIAC        PTCLDY    27  23  86 SW6       30.29S WCI  20
BLOOMINGTON    PTCLDY    26  23  88 SW9       30.28F WCI  17
DECATUR        MOCLDY    28  22  78 S8        30.31F WCI  20
PEORIA         MOCLDY    26  20  77 S7        30.28F WCI  18
6HR MIN TEMP:  24; 6HR MAX TEMP:  29;

LACON*         PTCLDY    25  20  80 CALM      30.26F
LINCOLN*       MOCLDY    28  24  84 S3        30.31F
SPRINGFIELD    MOCLDY    29  22  75 SW7       30.31S WCI  22
6HR MIN TEMP:  25; 6HR MAX TEMP:  29;

TAYLORVILLE    PTCLDY    28  23  80 S7        30.31F WCI  21
$$

ILZ033-039-045-046-055>057-062-063-311300-
EAST-CENTRAL ILLINOIS

CITY           SKY/WX    TMP DP  RH WIND       PRES   REMARKS
CHAMPAIGN      PTCLDY    26  21  81 SW10      30.31S WCI  16
DANVILLE*      CLOUDY    24  19  83 S6        30.30R WCI  17
RANTOUL*       PTCLDY    28  23  82 SW6       30.31S WCI  21
MATTOON        CLOUDY    27  20  75 S6        30.32S WCI  20
PARIS*         PTCLDY    24  21  86 S3        30.34F
$$

ILZ079-100>102-311300-
SOUTHWEST ILLINOIS

CITY           SKY/WX    TMP DP  RH WIND       PRES   REMARKS
BELLEVILLE     MOCLDY    26  24  92 SE3       30.34S
CAHOKIA*       MOCLDY    28  22  78 SE6       30.34S WCI  22
SPARTA*        MOCLDY    31  22  69 S6        30.36R WCI  25
$$

ILZ064>066-069>071-074>076-080>082-084>086-088>090-092>094-311300-
SOUTH-CENTRAL ILLINOIS

CITY           SKY/WX    TMP DP  RH WIND       PRES   REMARKS
CARBONDALE     CLOUDY    27  22  81 CALM      30.37S
6HR MIN TEMP:  24; 6HR MAX TEMP:  28;

CAIRO*         MOCLDY    30  26  85 CALM      30.38S
EFFINGHAM*     MOCLDY    27  19  71 S5        30.36S WCI  21
MARION         CLOUDY    30  25  80 S5        30.37S WCI  25
MT. VERNON     PTCLDY    21  18  86 CALM      30.36S
CENTRALIA*     PTCLDY    28  23  81 S6        30.35S WCI  21
SALEM*         PTCLDY    29  23  78 S3        30.35F
METROPOLIS*    PTCLDY    26  25  96 CALM      30.38R
$$

ILZ067-068-072-073-078-083-087-091-311300-
SOUTHEAST ILLINOIS

CITY           SKY/WX    TMP DP  RH WIND       PRES   REMARKS
LAWRENCEVILLE  PTCLDY    22  19  89 CALM      30.37S
FLORA*         PTCLDY    25  22  87 CALM      30.37R
FAIRFIELD*     PTCLDY    27  22  82 CALM      30.36S
HARRISBURG*    MOCLDY    26  25  97 CALM      30.38S
ROBINSON*      MOCLDY    25  21  86 S3        30.38R
CARMI*         PTCLDY    26  26  97 CALM      30.37F
$$

ABBREVIATIONS USED IN REMARKS
   TC - TEMPERATURE IN CELSIUS
  WCI - WIND CHILL INDEX
   HX - HEAT INDEX
  VSB - VISIBILITY
$$



USA.gov is the U.S. government's official web portal to all federal, state and local government web resources and services.